Weather History for Medford, WI

Change the Weather History Date:

Monday, April 28, 2014

  Actual Average Record
Temperature  
Mean Temperature 41 °F -  
Max Temperature 46 °F 60 °F 88 °F (1952)
Min Temperature 36 °F 36 °F 22 °F (1965)
Degree Days  
Heating Degree Days 24    
Moisture  
Dew Point 32 °F    
Average Humidity 71    
Maximum Humidity 87    
Minimum Humidity 55    
Precipitation  
Precipitation 0.14 in - - ()
Sea Level Pressure  
Sea Level Pressure 29.79 in    
Wind  
Wind Speed 19 mph (East)    
Max Wind Speed 28 mph    
Max Gust Speed 37 mph    
Visibility 10 miles    
Events Rain    
Averages and records for this station are not official NWS values.
T = Trace of Precipitation, MM = Missing Value Source: NWS Daily Summary

Daily Weather History Graph

Daily Weather History Graph

Search for Another Location

Airport:

Trip Planner

Search our weather history database for the weather conditions in past years. The results will help you decide how hot, cold, wet, or windy it might be!

Date:

Astronomy

Apr. 28, 2014 Rise Set
Actual Time 5:54 AM CDT 8:03 PM CDT
Civil Twilight 5:22 AM CDT 8:35 PM CDT
Nautical Twilight 4:43 AM CDT 9:15 PM CDT
Astronomical Twilight 3:59 AM CDT 9:59 PM CDT
Moon 5:35 AM CDT (4/28) 7:40 PM CDT (4/28)
Length of Visible Light 15h 12m
Length of Day
14h 08m
Waning Crescent, 0% of the Moon is Illuminated
Apr 28
Waning Crescent
Apr 29
New
May 6
First Quarter
May 14
Full
May 21
Last Quarter

Hourly Weather History & Observations

Time (CDT) Temp. Windchill Dew Point Humidity Pressure Visibility Wind Dir Wind Speed Gust Speed Precip Events Conditions
12:15 AM 39.2 °F 29.6 °F 31.1 °F 73% 29.84 in 10.0 mi East 19.6 mph 29.9 mph N/A   Overcast
12:35 AM 39.9 °F 29.5 °F 30.2 °F 68% 29.85 in 10.0 mi East 24.2 mph 32.2 mph N/A   Overcast
12:55 AM 40.1 °F 29.7 °F 30.4 °F 68% 29.85 in 10.0 mi East 24.2 mph 32.2 mph N/A   Overcast
1:15 AM 40.1 °F 30.7 °F 30.4 °F 68% 29.87 in 10.0 mi East 19.6 mph 27.6 mph N/A   Drizzle
1:35 AM 39.6 °F 31.3 °F 31.1 °F 72% 29.90 in 10.0 mi ESE 15.0 mph 23.0 mph N/A   Light Drizzle
1:55 AM 39.0 °F 31.4 °F 32.0 °F 76% 29.89 in 10.0 mi East 12.7 mph 23.0 mph N/A   Drizzle
2:15 AM 38.8 °F 30.0 °F 31.6 °F 75% 29.87 in 10.0 mi East 16.1 mph 21.9 mph N/A   Overcast
2:35 AM 39.2 °F 31.6 °F 31.1 °F 73% 29.87 in 10.0 mi East 12.7 mph 21.9 mph N/A   Overcast
2:55 AM 39.4 °F 30.1 °F 30.4 °F 70% 29.87 in 10.0 mi East 18.4 mph 27.6 mph N/A   Overcast
3:15 AM 39.4 °F 30.1 °F 30.6 °F 71% 29.86 in 10.0 mi East 18.4 mph 28.8 mph N/A   Overcast
3:35 AM 39.2 °F 30.5 °F 31.1 °F 73% 29.85 in 10.0 mi East 16.1 mph 29.9 mph N/A   Overcast
3:55 AM 39.2 °F 29.3 °F 31.3 °F 73% 29.84 in 10.0 mi East 20.7 mph 27.6 mph N/A   Overcast
4:15 AM 38.8 °F 28.3 °F 31.8 °F 76% 29.84 in 10.0 mi East 23.0 mph 31.1 mph N/A   Overcast
4:35 AM 36.9 °F 26.8 °F 33.1 °F 86% 29.84 in 4.0 mi East 18.4 mph 27.6 mph 0.02 in Rain Rain
4:55 AM 36.7 °F 26.0 °F 33.3 °F 87% 29.83 in 10.0 mi East 20.7 mph 31.1 mph 0.02 in Rain Light Rain
5:15 AM 37.0 °F 28.1 °F 32.7 °F 84% 29.83 in 10.0 mi East 15.0 mph 25.3 mph N/A   Overcast
5:35 AM 37.8 °F 28.3 °F 32.0 °F 80% 29.82 in 10.0 mi East 17.3 mph 25.3 mph N/A   Overcast
5:55 AM 38.3 °F 28.7 °F 31.6 °F 77% 29.82 in 10.0 mi East 18.4 mph 28.8 mph N/A   Overcast
6:15 AM 38.7 °F 29.5 °F 31.1 °F 74% 29.82 in 10.0 mi East 17.3 mph 27.6 mph N/A   Overcast
6:35 AM 39.2 °F 30.5 °F 30.7 °F 72% 29.81 in 10.0 mi East 16.1 mph 26.5 mph N/A   Overcast
6:55 AM 39.7 °F 30.6 °F 30.2 °F 69% 29.81 in 10.0 mi East 18.4 mph 28.8 mph N/A   Overcast
7:15 AM 40.1 °F 31.3 °F 29.5 °F 66% 29.81 in 10.0 mi East 17.3 mph 27.6 mph N/A   Overcast
7:35 AM 40.3 °F 31.0 °F 28.8 °F 63% 29.81 in 10.0 mi East 19.6 mph 33.4 mph N/A   Overcast
7:55 AM 40.5 °F 31.2 °F 28.9 °F 64% 29.81 in 10.0 mi East 19.6 mph 26.5 mph N/A   Overcast
8:15 AM 40.6 °F 30.9 °F 28.6 °F 62% 29.80 in 10.0 mi East 21.9 mph 31.1 mph N/A   Light Drizzle
8:55 AM 41.2 °F 31.9 °F 28.4 °F 60% 29.79 in 10.0 mi East 20.7 mph 29.9 mph N/A   Overcast
9:15 AM 41.5 °F 32.1 °F 28.6 °F 60% 29.79 in 10.0 mi East 21.9 mph 35.7 mph N/A   Overcast
9:35 AM 41.9 °F 32.6 °F 28.6 °F 59% 29.78 in 10.0 mi East 21.9 mph 34.5 mph N/A   Overcast
9:55 AM 41.9 °F 32.3 °F 28.4 °F 59% 29.78 in 10.0 mi East 23.0 mph 33.4 mph N/A   Overcast
10:15 AM 41.9 °F 32.8 °F 28.4 °F 59% 29.77 in 10.0 mi East 20.7 mph 32.2 mph N/A   Overcast
10:35 AM 42.4 °F 34.4 °F 28.6 °F 58% 29.77 in 10.0 mi East 17.3 mph 35.7 mph N/A   Overcast
11:15 AM 43.7 °F 33.9 °F 29.8 °F 58% 29.76 in 10.0 mi East 27.6 mph 36.8 mph N/A   Light Drizzle
11:35 AM 43.7 °F 35.4 °F 29.7 °F 58% 29.76 in 10.0 mi East 19.6 mph 35.7 mph N/A   Light Drizzle
12:15 PM 43.5 °F 36.1 °F 29.7 °F 58% 29.77 in 10.0 mi East 16.1 mph 28.8 mph N/A Rain Rain
12:35 PM 43.0 °F 35.1 °F 30.7 °F 62% 29.77 in 10.0 mi East 17.3 mph 33.4 mph N/A Rain Rain
12:55 PM 43.9 °F 36.2 °F 32.0 °F 63% 29.78 in 10.0 mi East 17.3 mph 25.3 mph N/A Rain Light Rain
1:15 PM 43.7 °F 35.0 °F 31.6 °F 63% 29.78 in 10.0 mi East 21.9 mph 29.9 mph N/A   Drizzle
1:35 PM 43.9 °F 34.7 °F 31.1 °F 61% 29.78 in 10.0 mi East 24.2 mph 33.4 mph N/A   Drizzle
1:55 PM 44.6 °F 36.6 °F 31.8 °F 61% 29.78 in 10.0 mi East 19.6 mph 31.1 mph N/A   Light Drizzle
2:15 PM 44.1 °F 35.2 °F 31.1 °F 60% 29.77 in 10.0 mi East 23.0 mph 35.7 mph N/A Rain Light Rain
2:35 PM 45.0 °F 36.4 °F 32.2 °F 61% 29.76 in 10.0 mi East 23.0 mph 33.4 mph N/A   Light Drizzle
2:55 PM 45.3 °F 38.1 °F 31.8 °F 59% 29.75 in 10.0 mi East 17.3 mph 31.1 mph N/A   Light Drizzle
3:15 PM 45.5 °F 37.8 °F 31.8 °F 59% 29.75 in 10.0 mi East 19.6 mph 32.2 mph N/A   Light Drizzle
3:35 PM 46.4 °F 38.1 °F 31.1 °F 55% 29.74 in 10.0 mi East 24.2 mph 35.7 mph N/A   Overcast
4:15 PM 45.5 °F 37.6 °F 30.9 °F 57% 29.77 in 10.0 mi East 20.7 mph 26.5 mph N/A   Drizzle
4:35 PM 42.6 °F 35.6 °F 34.7 °F 74% 29.78 in 7.0 mi East 13.8 mph 20.7 mph 0.02 in Rain Light Rain
4:55 PM 41.2 °F 33.4 °F 36.1 °F 82% 29.77 in 5.0 mi East 15.0 mph 23.0 mph 0.06 in Rain Rain
5:15 PM 41.0 °F 35.2 °F 37.0 °F 86% 29.77 in 7.0 mi East 9.2 mph 23.0 mph 0.01 in Rain Light Rain
5:35 PM 41.0 °F 33.1 °F 36.5 °F 84% 29.78 in 7.0 mi East 15.0 mph 19.6 mph 0.02 in Rain Light Rain
5:55 PM 40.5 °F 31.2 °F 35.8 °F 83% 29.77 in 7.0 mi East 19.6 mph 28.8 mph 0.03 in Rain Light Rain
6:15 PM 40.1 °F 30.5 °F 35.8 °F 85% 29.76 in 5.0 mi ENE 20.7 mph 26.5 mph 0.02 in Rain Light Rain
6:35 PM 40.1 °F 31.0 °F 34.7 °F 81% 29.77 in 10.0 mi East 18.4 mph 26.5 mph 0.02 in Rain Light Rain
6:55 PM 40.1 °F 30.7 °F 34.3 °F 80% 29.77 in 10.0 mi East 19.6 mph 27.6 mph 0.02 in   Overcast
7:15 PM 40.1 °F 30.2 °F 33.6 °F 78% 29.76 in 10.0 mi ENE 21.9 mph 28.8 mph N/A   Overcast
7:35 PM 40.1 °F 32.4 °F 33.3 °F 77% 29.78 in 10.0 mi East 13.8 mph 24.2 mph N/A   Overcast
7:55 PM 40.1 °F 30.7 °F 32.5 °F 74% 29.76 in 10.0 mi East 19.6 mph 25.3 mph N/A   Overcast
8:15 PM 40.3 °F 31.6 °F 32.0 °F 72% 29.76 in 10.0 mi East 17.3 mph 25.3 mph N/A   Overcast
8:35 PM 40.3 °F 31.9 °F 31.8 °F 72% 29.77 in 10.0 mi East 16.1 mph 24.2 mph N/A   Overcast
8:55 PM 40.5 °F 31.2 °F 31.3 °F 70% 29.76 in 10.0 mi East 19.6 mph 29.9 mph N/A   Overcast
9:15 PM 40.3 °F 30.4 °F 30.9 °F 69% 29.77 in 10.0 mi East 21.9 mph 28.8 mph N/A   Overcast
9:55 PM 40.1 °F 30.2 °F 30.9 °F 70% 29.77 in 10.0 mi East 21.9 mph 31.1 mph N/A   Overcast
10:15 PM 39.2 °F 29.3 °F 32.0 °F 75% 29.77 in 10.0 mi East 20.7 mph 29.9 mph N/A   Drizzle
10:35 PM 39.0 °F 28.8 °F 32.0 °F 76% 29.77 in 10.0 mi East 21.9 mph 29.9 mph N/A Rain Light Rain
10:55 PM 38.1 °F 27.6 °F 32.9 °F 81% 29.76 in 7.0 mi East 21.9 mph 27.6 mph N/A Rain Light Rain
11:15 PM 37.6 °F 26.3 °F 33.1 °F 84% 29.74 in 7.0 mi East 24.2 mph 31.1 mph 0.01 in Rain Light Rain
11:35 PM 37.4 °F 26.6 °F 33.1 °F 84% 29.74 in 10.0 mi ENE 21.9 mph 28.8 mph 0.01 in Rain Light Rain
11:55 PM 37.4 °F 27.2 °F 32.9 °F 84% 29.73 in 10.0 mi ENE 19.6 mph 31.1 mph 0.01 in   Overcast